This is the latest recevied weather packets stored in our database for station/object K7ZQU-7. If no packets are shown the sender has not sent any weather packets the latest 10 day(s).
| Time | Temp. | Humidity | Pressure | Rain* | Wind** | Luminosity | Snow |
|---|---|---|---|---|---|---|---|
| 1777447242 | 0.56° C | 93% | 1018.3 hPa | 0 mm | 0.89 m/s, 325° | - | - |
| 1777446943 | 0.56° C | 92% | 1018.5 hPa | 0 mm | 0.45 m/s, 287° | - | - |
| 1777446645 | 1.11° C | 92% | 1018.4 hPa | 0 mm | 0 m/s | - | - |
| 1777446043 | 1.11° C | 91% | 1018.5 hPa | 0 mm | 0.45 m/s, 274° | - | - |
| 1777445743 | 1.11° C | 91% | 1018.6 hPa | 0 mm | 0 m/s | - | - |
| 1777445445 | 1.11° C | 92% | 1018.4 hPa | 0 mm | 0 m/s | - | - |
| 1777445146 | 1.11° C | 92% | 1018.5 hPa | 0 mm | 0 m/s | - | - |
| 1777444544 | 1.11° C | 91% | 1018.4 hPa | 0 mm | 0 m/s | - | - |
| 1777444245 | 1.11° C | 92% | 1018.4 hPa | 0 mm | 0 m/s | - | - |
| 1777443946 | 1.11° C | 91% | 1018.4 hPa | 0 mm | 0 m/s | - | - |
| 1777443647 | 1.11° C | 91% | 1018.4 hPa | 0 mm | 0 m/s | - | - |
| 1777443345 | 1.11° C | 91% | 1018.4 hPa | 0 mm | 0.45 m/s, 287° | - | - |
| 1777443046 | 1.11° C | 90% | 1018.4 hPa | 0 mm | 0 m/s | - | - |
| 1777442747 | 1.67° C | 90% | 1018.5 hPa | 0 mm | 0.89 m/s, 294° | - | - |
| 1777442448 | 1.67° C | 90% | 1018.4 hPa | 0 mm | 0 m/s | - | - |
| 1777441847 | 1.67° C | 90% | 1018.4 hPa | 0 mm | 0.45 m/s, 259° | - | - |
| 1777441548 | 1.67° C | 90% | 1018.4 hPa | 0 mm | 1.34 m/s, 298° | - | - |
| 1777441249 | 1.67° C | 90% | 1018.4 hPa | 0 mm | 0.89 m/s, 302° | - | - |
| 1777440950 | 1.67° C | 90% | 1018.5 hPa | 0 mm | 1.34 m/s, 276° | - | - |
| 1777440651 | 1.67° C | 90% | 1018.6 hPa | 0 mm | 1.34 m/s, 253° | - | - |
| 1777440349 | 1.67° C | 89% | 1018.6 hPa | 0 mm | 1.34 m/s, 314° | - | - |
| 1777440050 | 1.67° C | 89% | 1018.5 hPa | 0 mm | 1.79 m/s, 285° | - | - |
| 1777439751 | 1.67° C | 89% | 1018.5 hPa | 0 mm | 1.34 m/s, 295° | - | - |
| 1777439452 | 2.22° C | 89% | 1018.5 hPa | 0 mm | 1.79 m/s, 322° | - | - |
| 1777438851 | 2.22° C | 88% | 1018.4 hPa | 0 mm | 2.24 m/s, 301° | - | - |
* Rain latest hour (hover to see other rain measurements)
** Current wind speed in m/s (hover to see current wind gust speed)